• In Belarus
  • List of Countries
  • For 7 days
  • Water Temperature
  • Weather Map
  • Weather Widgets
  • user-avatar
    Login

    Hourly Weather Darwin

    Today, 16 September, Monday

    Time Temperature Precipitation Wind Pressure Humidity
    00:00 +21°C° 0 mm 3 mps 761 mmHg 82%
    01:00 +21°C° 0 mm 3 mps 760 mmHg 83%
    02:00 +21°C° 0 mm 3 mps 760 mmHg 85%
    03:00 +21°C° 0 mm 3 mps 760 mmHg 81%
    04:00 +20°C° 0 mm 3 mps 761 mmHg 84%
    05:00 +20°C° 0 mm 2 mps 761 mmHg 87%
    06:00 +20°C° 0 mm 2 mps 761 mmHg 90%
    07:00 +24°C° 0 mm 2 mps 761 mmHg 74%
    08:00 +27°C° 0 mm 3 mps 762 mmHg 58%
    09:00 +30°C° 0 mm 3 mps 762 mmHg 40%
    10:00 +33°C° 0 mm 4 mps 761 mmHg 32%
    11:00 +35°C° 0 mm 4 mps 760 mmHg 25%
    12:00 +37°C° 0 mm 4 mps 760 mmHg 17%
    13:00 +37°C° 0 mm 4 mps 759 mmHg 17%
    14:00 +37°C° 0 mm 5 mps 759 mmHg 17%
    15:00 +37°C° 0 mm 5 mps 758 mmHg 17%
    16:00 +35°C° 0 mm 5 mps 758 mmHg 25%
    17:00 +32°C° 0 mm 5 mps 758 mmHg 32%
    18:00 +28°C° 0 mm 4 mps 758 mmHg 40%
    19:00 +26°C° 0 mm 4 mps 759 mmHg 50%
    20:00 +24°C° 0 mm 3 mps 759 mmHg 59%
    21:00 +21°C° 0 mm 2 mps 760 mmHg 69%
    22:00 +21°C° 0 mm 2 mps 760 mmHg 74%
    23:00 +23°C° 0 mm 2 mps 760 mmHg 79%

    Tomorrow, 17 September, Tuesday

    Time Temperature Precipitation Wind Pressure Humidity
    00:00 +23°C° 0 mm 2 mps 761 mmHg 84%
    01:00 +23°C° 0 mm 2 mps 760 mmHg 86%
    02:00 +21°C° 0 mm 2 mps 760 mmHg 89%
    03:00 +21°C° 0 mm 3 mps 760 mmHg 91%
    04:00 +21°C° 0 mm 2 mps 760 mmHg 92%
    05:00 +21°C° 0 mm 2 mps 761 mmHg 93%
    06:00 +21°C° 0 mm 2 mps 761 mmHg 94%
    07:00 +24°C° 0 mm 2 mps 761 mmHg 77%
    08:00 +27°C° 0 mm 2 mps 762 mmHg 60%
    09:00 +30°C° 0 mm 3 mps 762 mmHg 43%
    10:00 +33°C° 0 mm 3 mps 761 mmHg 35%
    11:00 +36°C° 0 mm 3 mps 761 mmHg 27%
    12:00 +38°C° 0 mm 3 mps 760 mmHg 19%
    13:00 +38°C° 0 mm 4 mps 760 mmHg 19%
    14:00 +38°C° 0 mm 4 mps 759 mmHg 19%
    15:00 +39°C° 0 mm 5 mps 758 mmHg 18%
    16:00 +36°C° 0 mm 5 mps 759 mmHg 25%
    17:00 +33°C° 0 mm 4 mps 759 mmHg 31%
    18:00 +30°C° 0 mm 4 mps 759 mmHg 38%
    19:00 +27°C° 0 mm 4 mps 759 mmHg 51%
    20:00 +25°C° 0 mm 3 mps 760 mmHg 65%
    21:00 +22°C° 0 mm 3 mps 761 mmHg 79%
    22:00 +22°C° 0 mm 3 mps 761 mmHg 81%
    23:00 +23°C° 0 mm 2 mps 761 mmHg 84%

    Day after tomorrow, 18 September, Wednesday

    Time Temperature Precipitation Wind Pressure Humidity
    00:00 +23°C° 0 mm 2 mps 762 mmHg 86%
    01:00 +23°C° 0 mm 2 mps 761 mmHg 88%
    02:00 +23°C° 0 mm 2 mps 761 mmHg 91%
    03:00 +21°C° 0 mm 2 mps 761 mmHg 93%
    04:00 +21°C° 0 mm 2 mps 761 mmHg 93%
    05:00 +21°C° 0 mm 2 mps 761 mmHg 93%
    06:00 +22°C° 0 mm 1 mps 762 mmHg 94%
    07:00 +25°C° 0 mm 2 mps 762 mmHg 78%
    08:00 +28°C° 0 mm 2 mps 762 mmHg 62%
    09:00 +30°C° 0 mm 3 mps 762 mmHg 47%
    10:00 +34°C° 0 mm 3 mps 762 mmHg 38%
    11:00 +36°C° 0 mm 3 mps 761 mmHg 28%
    12:00 +39°C° 0 mm 3 mps 760 mmHg 19%
    13:00 +39°C° 0 mm 3 mps 760 mmHg 19%
    14:00 +40°C° 0 mm 4 mps 759 mmHg 20%
    15:00 +40°C° 0 mm 4 mps 758 mmHg 20%
    16:00 +36°C° 0 mm 3 mps 758 mmHg 27%
    17:00 +33°C° 0 mm 3 mps 758 mmHg 35%
    18:00 +30°C° 0 mm 3 mps 758 mmHg 42%
    19:00 +28°C° 0 mm 3 mps 759 mmHg 53%
    20:00 +26°C° 0 mm 2 mps 760 mmHg 65%
    21:00 +24°C° 0 mm 2 mps 761 mmHg 77%
    22:00 +24°C° 0 mm 2 mps 761 mmHg 80%
    23:00 +23°C° 0 mm 1 mps 761 mmHg 83%

    19 September, Thursday

    Time Temperature Precipitation Wind Pressure Humidity
    00:00 +23°C° 0 mm 1 mps 761 mmHg 86%
    01:00 +23°C° 0 mm 1 mps 761 mmHg 87%
    02:00 +22°C° 0 mm 1 mps 761 mmHg 88%
    03:00 +22°C° 0 mm 1 mps 760 mmHg 89%
    04:00 +22°C° 0 mm 1 mps 760 mmHg 90%
    05:00 +21°C° 0 mm 1 mps 760 mmHg 90%
    06:00 +21°C° 0 mm 1 mps 760 mmHg 90%
    07:00 +25°C° 0 mm 1 mps 761 mmHg 74%
    08:00 +29°C° 0 mm 1 mps 761 mmHg 58%
    09:00 +32°C° 0 mm 1 mps 761 mmHg 42%
    10:00 +35°C° 0 mm 2 mps 760 mmHg 34%
    11:00 +37°C° 0 mm 2 mps 760 mmHg 25%
    12:00 +39°C° 0 mm 3 mps 759 mmHg 17%
    13:00 +38°C° 0 mm 4 mps 758 mmHg 21%
    14:00 +37°C° 0 mm 4 mps 758 mmHg 25%
    15:00 +36°C° 0 mm 4 mps 757 mmHg 29%
    16:00 +34°C° 0 mm 4 mps 757 mmHg 32%
    17:00 +31°C° 0 mm 3 mps 757 mmHg 35%
    18:00 +30°C° 0 mm 2 mps 757 mmHg 37%
    19:00 +28°C° 0 mm 3 mps 758 mmHg 51%
    20:00 +26°C° 0 mm 3 mps 759 mmHg 66%
    21:00 +23°C° 0 mm 4 mps 759 mmHg 80%
    22:00 +24°C° 0 mm 3 mps 759 mmHg 82%
    23:00 +24°C° 0 mm 3 mps 760 mmHg 84%

    20 September, Friday

    Time Temperature Precipitation Wind Pressure Humidity
    00:00 +24°C° 0 mm 2 mps 760 mmHg 86%
    01:00 +23°C° 0 mm 2 mps 759 mmHg 88%
    02:00 +23°C° 0 mm 1 mps 759 mmHg 89%
    03:00 +23°C° 0 mm 1 mps 759 mmHg 91%
    04:00 +22°C° 0 mm 1 mps 759 mmHg 92%
    05:00 +22°C° 0 mm 1 mps 760 mmHg 93%
    06:00 +22°C° 0 mm 1 mps 760 mmHg 94%
    07:00 +25°C° 0 mm 1 mps 760 mmHg 80%
    08:00 +28°C° 0 mm 1 mps 761 mmHg 65%
    09:00 +31°C° 0 mm 1 mps 761 mmHg 51%
    10:00 +34°C° 0 mm 2 mps 760 mmHg 44%
    11:00 +37°C° 0 mm 2 mps 759 mmHg 37%
    12:00 +39°C° 0 mm 3 mps 759 mmHg 29%
    13:00 +38°C° 0 mm 4 mps 758 mmHg 32%
    14:00 +37°C° 0 mm 4 mps 757 mmHg 34%
    15:00 +37°C° 0 mm 5 mps 757 mmHg 36%
    16:00 +34°C° 0 mm 5 mps 757 mmHg 45%
    17:00 +32°C° 0 mm 5 mps 757 mmHg 53%
    18:00 +29°C° 0 mm 5 mps 757 mmHg 61%
    19:00 +28°C° 0 mm 4 mps 758 mmHg 69%
    20:00 +26°C° 0 mm 4 mps 758 mmHg 76%
    21:00 +25°C° 0 mm 3 mps 759 mmHg 84%
    22:00 +25°C° 0 mm 3 mps 759 mmHg 85%
    23:00 +24°C° 0 mm 3 mps 759 mmHg 86%

    21 September, Saturday

    Time Temperature Precipitation Wind Pressure Humidity
    00:00 +24°C° 0 mm 2 mps 759 mmHg 87%
    01:00 +24°C° 0 mm 3 mps 759 mmHg 87%
    02:00 +24°C° 0 mm 3 mps 759 mmHg 88%
    03:00 +23°C° 0 mm 4 mps 758 mmHg 88%
    04:00 +22°C° 0 mm 3 mps 759 mmHg 89%
    05:00 +23°C° 0 mm 2 mps 759 mmHg 91%
    06:00 +22°C° 0 mm 1 mps 759 mmHg 92%
    07:00 +26°C° 0 mm 1 mps 760 mmHg 78%
    08:00 +29°C° 0 mm 1 mps 760 mmHg 63%
    09:00 +33°C° 0 mm 1 mps 760 mmHg 49%
    10:00 +35°C° 0 mm 2 mps 760 mmHg 44%
    11:00 +36°C° 0 mm 2 mps 759 mmHg 40%
    12:00 +37°C° 0 mm 3 mps 759 mmHg 36%
    13:00 +37°C° 0 mm 3 mps 758 mmHg 37%
    14:00 +36°C° 0 mm 4 mps 757 mmHg 39%
    15:00 +36°C° 0 mm 4 mps 757 mmHg 40%
    16:00 +34°C° 0 mm 4 mps 757 mmHg 47%
    17:00 +32°C° 0 mm 4 mps 757 mmHg 54%
    18:00 +29°C° 0 mm 4 mps 757 mmHg 61%
    19:00 +28°C° 0 mm 4 mps 758 mmHg 68%
    20:00 +26°C° 0 mm 4 mps 759 mmHg 75%
    21:00 +25°C° 0 mm 4 mps 759 mmHg 82%
    22:00 +25°C° 0 mm 3 mps 759 mmHg 84%
    23:00 +25°C° 0 mm 3 mps 760 mmHg 86%
    Show more